[[{"header":{"parameterUnit":"m.s-1","parameterCategory":1,"la1":30.2991,"la2":30.254,"lo1":-89.0895,"lo2":-89.0444,"dy":0.0017,"dx":0.0017,"nx":28,"ny":28,"refTime":"2024-04-28T21:00:00:Z","depth":0,"parameterNumber":2,"parameterNumberName":"U-component_of_WINDS"},"data":[0,0,0,0,0,0,0,0,0,0,0,0,0,0,0,0,0,0,0,0,0,0,0,0,0,0,0,0,0,0,0,0,0,0,0,0,0,0,0,0,0,0,0,0,0,0,0,0,0,0,0,0,0,0,0,0,0,0,-5.0586,-5.0588,0,-5.0709,-5.071,-5.0712,-5.0729,-5.0728,-5.0727,-5.0726,-5.0848,-5.0852,-5.0856,0,0,0,0,0,0,0,0,0,0,0,0,0,-5.0365,-5.0369,-5.0586,-5.0588,-5.0589,-5.0709,-5.071,-5.0712,-5.0729,-5.0728,-5.0726,-5.0725,-5.0846,-5.0852,-5.0857,0,0,0,0,0,0,0,0,0,0,0,0,0,-5.0472,-5.037,-5.0586,-5.0612,-5.0616,-5.0708,-5.071,-5.0713,-5.0729,-5.0728,-5.0726,-5.0724,-5.0845,-5.0851,-5.0857,-5.0931,0,0,-5.0877,-5.088,0,0,0,0,0,0,0,0,-5.0465,-5.048,-5.0607,-5.0611,-5.0615,-5.0702,-5.0677,-5.0786,-5.073,-5.0686,-5.0726,-5.0724,-5.08,-5.081,-5.0837,-5.0937,-5.0942,-5.0878,-5.0882,-5.0884,-5.0886,0,0,0,0,0,0,0,-5.0458,-5.0474,-5.0635,-5.0609,-5.0614,-5.0617,-5.0631,-5.0698,-5.0751,-5.069,-5.0691,-5.0706,-5.0802,-5.0831,-5.084,-5.0944,-5.0878,-5.0883,-5.0887,-5.089,-5.1111,-5.1113,0,0,0,0,0,0,-5.0446,-5.0468,-5.0631,-5.0638,-5.0535,-5.0623,-5.0638,-5.0676,-5.0751,-5.076,-5.0707,-5.0706,-5.0821,-5.0833,-5.0844,-5.0935,-5.0884,-5.089,-5.0894,-5.1109,-5.1112,-5.1114,0,0,0,0,0,0,-5.0441,-5.0461,-5.0626,-5.0554,-5.0575,-5.0628,-5.0671,-5.0679,-5.0707,-5.0764,-5.0773,-5.0727,-5.082,-5.0835,-5.091,-5.094,-5.0893,-5.0899,-5.1107,-5.111,-5.1113,-5.1118,0,0,0,0,0,0,-5.0435,-5.0459,-5.0487,-5.0554,-5.0579,-5.0689,-5.0673,-5.0683,-5.0719,-5.0719,-5.0784,-5.0794,-5.082,-5.09,-5.0916,-5.0948,-5.0904,-5.1104,-5.1108,-5.1112,-5.1115,-5.112,-5.1125,0,0,0,0,0,-5.0427,-5.0483,-5.0489,-5.0508,-5.0616,-5.0691,-5.0705,-5.0735,-5.0721,-5.075,-5.0787,-5.0791,-5.0935,-5.0908,-5.0926,-5.096,-5.1103,-5.1107,-5.1112,-5.1113,-5.1119,-5.1125,0,0,0,0,0,0,-5.0416,-5.0492,-5.0499,-5.0579,-5.0629,-5.0694,-5.0731,-5.0741,-5.0795,-5.0792,-5.0826,-5.0841,-5.0913,-5.0945,-5.0913,-5.1036,-5.1017,-5.1026,-5.1012,-5.1019,-5.1024,-5.1013,-5.091,0,0,0,0,0,-5.0423,-5.0479,-5.0542,-5.0606,-5.0631,-5.0677,-5.0711,-5.073,-5.0782,-5.0803,-5.0845,-5.0895,-5.0951,-5.0987,-5.1042,-5.1121,-5.1135,-5.1154,-5.1159,-5.1163,-5.1168,-5.1212,-5.1221,-5.1129,-5.1129,-5.1129,0,0,-5.0438,-5.0486,-5.0519,-5.0605,-5.0646,-5.0702,-5.0694,-5.0753,-5.0795,-5.0812,-5.0884,-5.0917,-5.0976,-5.1053,-5.1088,-5.1081,-5.1198,-5.1168,-5.1171,-5.1175,-5.1218,-5.1226,-5.1234,-5.1132,-5.1131,-5.1131,0,0,-5.0492,-5.0536,-5.0593,-5.0635,-5.0698,-5.0729,-5.0743,-5.0808,-5.083,-5.0905,-5.0919,-5.0969,-5.1065,-5.1106,-5.114,-5.1214,-5.1219,-5.1231,-5.1256,-5.1298,-5.1305,-5.1312,-5.1336,-5.1345,-5.1237,-5.1237,-5.1237,0,-5.0502,-5.0587,-5.0621,-5.0681,-5.0718,-5.0739,-5.0797,-5.0836,-5.0913,-5.0938,-5.0929,-5.1051,-5.1092,-5.1179,-5.1197,-5.1224,-5.124,-5.1221,-5.1302,-5.1309,-5.1315,-5.1339,-5.1348,-5.1238,-5.1238,-5.1238,-5.1238,0,-5.0595,-5.0655,-5.0694,-5.0769,-5.0812,-5.087,-5.0913,-5.0952,-5.0968,-5.1,-5.1076,-5.1126,-5.1192,-5.1215,-5.1231,-5.1304,-5.1297,-5.1295,-5.1276,-5.1324,-5.1347,-5.1357,-5.1239,-5.1239,-5.1238,-5.1238,0,0,-5.0642,-5.0738,-5.0752,-5.0787,-5.0859,-5.0905,-5.0965,-5.1031,-5.1063,-5.1117,-5.1167,-5.125,-5.1249,-5.1287,-5.1309,-5.1346,-5.14,-5.1339,-5.1341,-5.1347,-5.1483,-5.1482,-5.1492,-5.1407,-5.1408,-5.141,-5.1478,0,-5.0703,-5.0811,-5.0845,-5.0935,-5.099,-5.1012,-5.1064,-5.1114,-5.1147,-5.1198,-5.1233,-5.1291,-5.1286,-5.1309,-5.1348,-5.1385,-5.1427,-5.1381,-5.1452,-5.1454,-5.1433,-5.1505,-5.1504,-5.1565,-5.1487,-5.1489,-5.149,0,-5.0788,-5.0845,-5.094,-5.1007,-5.1031,-5.1077,-5.1141,-5.119,-5.1248,-5.1269,-5.1313,-5.1332,-5.1395,-5.1377,-5.1464,-5.1432,-5.1464,-5.1487,-5.149,-5.1495,-5.1472,-5.1509,-5.1585,-5.1593,-5.1505,-5.1503,-5.1502,0,-5.081,-5.0911,-5.0981,-5.101,-5.109,-5.1122,-5.1157,-5.1213,-5.1251,-5.1307,-5.1331,-5.1394,-5.1427,-5.1475,-5.1511,-5.1494,-5.1595,-5.1579,-5.1613,-5.1612,-5.1629,-5.1627,-5.1709,-5.1655,-5.1655,-5.1655,-5.1654,0,-5.0873,-5.093,-5.0992,-5.1034,-5.11,-5.1139,-5.1202,-5.1238,-5.1288,-5.1338,-5.1362,-5.1408,-5.1454,-5.1506,-5.1535,-5.1602,-5.1618,-5.1635,-5.1642,-5.1632,-5.1629,-5.165,-5.1646,-5.1657,-5.1657,-5.1656,-5.1656,0,-5.0907,-5.0951,-5.1029,-5.1099,-5.1118,-5.1163,-5.1223,-5.1265,-5.13,-5.1363,-5.138,-5.1434,-5.1497,-5.1539,-5.1619,-5.1638,-5.1711,-5.1718,-5.1692,-5.1694,-5.1724,-5.172,-5.182,-5.1835,-5.1773,-5.1774,-5.1774,0,-5.0943,-5.0987,-5.1063,-5.1099,-5.1134,-5.1191,-5.1231,-5.1272,-5.1312,-5.1383,-5.1416,-5.1482,-5.1535,-5.1635,-5.1681,-5.1743,-5.175,-5.1781,-5.1759,-5.1748,-5.1748,-5.1743,-5.1748,-5.1783,-5.1783,-5.1784,-5.1784,0,-5.1001,-5.1021,-5.1077,-5.1141,-5.1188,-5.1241,-5.1293,-5.1321,-5.1372,-5.1415,-5.1481,-5.1523,-5.1606,-5.167,-5.1737,-5.1772,-5.1786,-5.1792,-5.1802,-5.179,-5.1773,-5.1781,-5.1698,-5.1788,-5.1787,-5.1787,-5.1787,-5.1787,-5.1035,-5.1076,-5.1136,-5.1198,-5.1243,-5.1292,-5.1335,-5.1377,-5.1432,-5.1503,-5.1525,-5.1593,-5.1651,-5.1742,-5.178,-5.1833,-5.1829,-5.1845,-5.1849,-5.1851,-5.185,-5.1767,-5.1846,-5.1846,-5.1846,-5.1846,-5.1846,0,-5.1093,-5.1133,-5.119,-5.1264,-5.1313,-5.1325,-5.1384,-5.1424,-5.1484,-5.1537,-5.1591,-5.1666,-5.1729,-5.1782,-5.1847,-5.188,-5.1888,-5.1895,-5.1891,-5.1899,-5.1851,-5.1834,-5.1887,-5.1887,-5.1887,-5.1887,-5.1887,-5.1887,-5.1128,-5.1197,-5.1225,-5.1317,-5.1358,-5.1425,-5.1458,-5.1503,-5.1546,-5.163,-5.1683,-5.1718,-5.1771,-5.184,-5.1899,-5.1913,-5.1934,-5.194,-5.1955,-5.1908,-5.1903,-5.1898,-5.1882,-5.1945,-5.1945,-5.1999,-5.1999,-5.1999]},{"header":{"parameterUnit":"m.s-1","parameterCategory":1,"la1":30.2991,"la2":30.254,"lo1":-89.0895,"lo2":-89.0444,"dy":0.0017,"dx":0.0017,"nx":28,"ny":28,"refTime":"2024-04-28T21:00:00:Z","depth":0,"parameterNumber":3,"parameterNumberName":"V-component_of_WINDS"},"data":[0,0,0,0,0,0,0,0,0,0,0,0,0,0,0,0,0,0,0,0,0,0,0,0,0,0,0,0,0,0,0,0,0,0,0,0,0,0,0,0,0,0,0,0,0,0,0,0,0,0,0,0,0,0,0,0,0,0,5.6142,5.6142,0,5.6132,5.6132,5.6132,5.6139,5.6139,5.614,5.614,5.6124,5.6124,5.6123,0,0,0,0,0,0,0,0,0,0,0,0,0,5.6164,5.6163,5.6142,5.6142,5.6142,5.6132,5.6132,5.6132,5.6139,5.6139,5.614,5.614,5.6124,5.6124,5.6123,0,0,0,0,0,0,0,0,0,0,0,0,0,5.6154,5.6163,5.6142,5.6144,5.6145,5.6133,5.6132,5.6132,5.6139,5.6139,5.614,5.614,5.6125,5.6124,5.6123,5.6106,0,0,5.6119,5.6119,0,0,0,0,0,0,0,0,5.6155,5.6153,5.6144,5.6144,5.6144,5.6138,5.6134,5.6123,5.6139,5.6141,5.614,5.6141,5.6128,5.6127,5.6123,5.6105,5.6105,5.6119,5.6119,5.6118,5.6118,0,0,0,0,0,0,0,5.6155,5.6154,5.6138,5.6144,5.6144,5.6145,5.6144,5.6132,5.6132,5.6141,5.6141,5.614,5.6128,5.6125,5.6123,5.6104,5.6119,5.6118,5.6118,5.6117,5.6075,5.6075,0,0,0,0,0,0,5.6156,5.6154,5.6139,5.6138,5.6151,5.6144,5.6143,5.6139,5.6132,5.6131,5.614,5.6141,5.6126,5.6124,5.6123,5.6105,5.6118,5.6117,5.6116,5.6076,5.6075,5.6075,0,0,0,0,0,0,5.6157,5.6155,5.6139,5.6146,5.6144,5.6143,5.6139,5.6139,5.6135,5.6131,5.6131,5.6137,5.6126,5.6124,5.6111,5.6104,5.6117,5.6116,5.6076,5.6076,5.6075,5.6068,0,0,0,0,0,0,5.6157,5.6155,5.6149,5.6146,5.6144,5.6128,5.6138,5.6138,5.6134,5.6135,5.6128,5.6127,5.6127,5.6113,5.611,5.6103,5.6115,5.6077,5.6076,5.6075,5.6068,5.6067,5.6065,0,0,0,0,0,5.6158,5.6146,5.6149,5.6147,5.6137,5.6128,5.6127,5.6128,5.6134,5.6127,5.6126,5.6128,5.6106,5.6112,5.6108,5.6101,5.6077,5.6076,5.6075,5.6069,5.6067,5.6065,0,0,0,0,0,0,5.6145,5.6145,5.6149,5.6135,5.6132,5.6129,5.6121,5.6125,5.6119,5.6119,5.612,5.6118,5.6105,5.6101,5.6108,5.6086,5.6092,5.6091,5.6089,5.6087,5.6085,5.6086,5.6114,0,0,0,0,0,5.6141,5.6135,5.6135,5.6123,5.6121,5.6122,5.6118,5.612,5.6116,5.6114,5.611,5.6105,5.6097,5.6092,5.6084,5.6068,5.6068,5.6062,5.606,5.6059,5.6057,5.6051,5.6049,5.6071,5.6071,5.6071,0,0,5.6131,5.6131,5.6126,5.612,5.6118,5.6111,5.612,5.6112,5.6107,5.6111,5.61,5.6098,5.6092,5.6079,5.6072,5.6075,5.6051,5.6058,5.6057,5.6056,5.605,5.6048,5.6046,5.6071,5.6071,5.6071,0,0,5.6111,5.611,5.6101,5.6099,5.6097,5.6098,5.6096,5.6094,5.6094,5.6083,5.6087,5.608,5.6066,5.6063,5.6059,5.6042,5.6044,5.6039,5.6031,5.6025,5.6023,5.6021,5.6016,5.6014,5.6038,5.6038,5.6038,0,5.6098,5.609,5.6095,5.6088,5.6086,5.6093,5.6084,5.6081,5.6076,5.6074,5.6078,5.6063,5.6059,5.6046,5.6042,5.6039,5.6037,5.604,5.6023,5.6021,5.602,5.6015,5.6013,5.6037,5.6037,5.6037,5.6038,0,5.6076,5.6071,5.6063,5.6062,5.6058,5.605,5.6053,5.6049,5.6052,5.6053,5.6043,5.6039,5.6033,5.603,5.6031,5.6017,5.602,5.6023,5.603,5.6017,5.6013,5.6011,5.6037,5.6037,5.6037,5.6037,0,0,5.6044,5.6048,5.6046,5.6046,5.6046,5.6041,5.6034,5.603,5.6027,5.6023,5.6017,5.6008,5.6012,5.6008,5.601,5.6004,5.5993,5.6009,5.6009,5.6007,5.598,5.5977,5.5975,5.5995,5.5995,5.5994,5.5981,0,5.6025,5.6015,5.602,5.6008,5.6004,5.6012,5.6006,5.6005,5.6007,5.6002,5.6003,5.5997,5.6002,5.6001,5.5996,5.5995,5.5988,5.5996,5.5989,5.5989,5.599,5.5972,5.5969,5.5955,5.5979,5.5978,5.5978,0,5.6,5.6,5.5988,5.5992,5.599,5.5985,5.5983,5.5979,5.5978,5.598,5.5978,5.5981,5.5974,5.5982,5.5972,5.5979,5.5976,5.5976,5.5975,5.5974,5.5982,5.5971,5.5951,5.5949,5.5975,5.5975,5.5976,0,5.598,5.5976,5.5969,5.5969,5.5972,5.5969,5.597,5.597,5.5968,5.5967,5.5966,5.5962,5.596,5.5957,5.596,5.5965,5.5951,5.5958,5.5951,5.5951,5.5947,5.5947,5.5927,5.5945,5.5945,5.5945,5.5946,0,5.5957,5.595,5.5961,5.5956,5.5949,5.5956,5.5949,5.595,5.5951,5.5947,5.5954,5.595,5.5954,5.595,5.5952,5.5945,5.5944,5.5944,5.5945,5.5944,5.5944,5.5942,5.5943,5.5945,5.5945,5.5945,5.5945,0,5.5932,5.5939,5.5933,5.5938,5.594,5.5934,5.5938,5.5935,5.5938,5.5933,5.5932,5.5936,5.5933,5.5936,5.5931,5.5933,5.5924,5.5926,5.5925,5.5926,5.5919,5.592,5.5897,5.5895,5.5915,5.5914,5.5914,0,5.5918,5.5913,5.5919,5.5919,5.592,5.5918,5.5918,5.5925,5.5924,5.5925,5.5921,5.5919,5.5917,5.5912,5.5913,5.5911,5.5913,5.5905,5.5912,5.5912,5.5913,5.5914,5.5914,5.5903,5.5903,5.5902,5.5902,0,5.5891,5.5896,5.5896,5.5897,5.5897,5.5898,5.5899,5.5898,5.5906,5.5904,5.5902,5.5901,5.5899,5.5897,5.5896,5.5896,5.59,5.5901,5.5899,5.5898,5.5898,5.5899,5.5921,5.5901,5.5901,5.5901,5.5901,5.5901,5.5872,5.5869,5.5874,5.5874,5.5877,5.5879,5.5877,5.5881,5.588,5.5881,5.5885,5.5882,5.5884,5.5884,5.5884,5.5882,5.5885,5.5882,5.5881,5.5881,5.5881,5.5899,5.5881,5.5881,5.5881,5.5881,5.5881,0,5.5846,5.5851,5.5851,5.5855,5.5855,5.5863,5.5865,5.5865,5.5863,5.5866,5.5866,5.5864,5.5863,5.5867,5.5866,5.5864,5.5866,5.5863,5.5863,5.5864,5.5877,5.5879,5.5862,5.5862,5.5862,5.5862,5.5862,5.5862,5.5833,5.583,5.5836,5.5834,5.5838,5.5838,5.5839,5.5841,5.5844,5.5843,5.5843,5.5846,5.5849,5.585,5.5849,5.585,5.585,5.5846,5.5848,5.586,5.5862,5.5864,5.5866,5.5846,5.5846,5.5835,5.5835,5.5835]}]]